Knoxville, IA

10:17 AM CDT on July 26, 2017 (GMT -0500)
Knoxville Municipal

Weather History for KOXV - February, 2014

Change the Weather History Date:

Thursday, February 27, 2014

  Actual Average Record
Temperature  
Mean Temperature 8 °F -  
Max Temperature 17 °F 42 °F 71 °F (1976)
Min Temperature -2 °F 24 °F -10 °F (1962)
Degree Days  
Heating Degree Days 58    
Moisture  
Dew Point -10 °F    
Average Humidity 48    
Maximum Humidity 68    
Minimum Humidity 37    
Precipitation  
Precipitation 0.00 in - - ()
Sea Level Pressure  
Sea Level Pressure 30.11 in    
Wind  
Wind Speed 14 mph (NNE)    
Max Wind Speed 23 mph    
Max Gust Speed 32 mph    
Visibility 10 miles    
Events      
Averages and records for this station are not official NWS values.
T = Trace of Precipitation, MM = Missing Value Source: NWS Daily Summary

Daily Weather History Graph

Daily Weather History Graph

Search for Another Location

Airport or City:

Trip Planner

Search our weather history database for the weather conditions in past years. The results will help you decide how hot, cold, wet, or windy it might be!

Date:

Astronomy

Feb. 27, 2014 Rise Set
Actual Time 6:49 AM CST 6:00 PM CST
Civil Twilight 6:22 AM CST 6:28 PM CST
Nautical Twilight 5:50 AM CST 7:00 PM CST
Astronomical Twilight 5:18 AM CST 7:32 PM CST
Moon 5:23 AM CST (2/27) 4:26 PM CST (2/27)
Length of Visible Light 12h 06m
Length of Day
11h 11m
Waning Crescent, 4% of the Moon is Illuminated
Feb 27
Waning Crescent
Mar 1
New
Mar 8
First Quarter
Mar 16
Full
Mar 23
Last Quarter

Hourly Weather History & Observations

Time (CST) Temp. Windchill Dew Point Humidity Pressure Visibility Wind Dir Wind Speed Gust Speed Precip Events Conditions
12:15 AM 17.6 °F 0.5 °F 8.6 °F 68% 29.92 in 10.0 mi North 21.9 mph - N/A   Mostly Cloudy
12:35 AM 15.8 °F 0.9 °F 6.8 °F 68% 29.94 in 10.0 mi North 15.0 mph 21.9 mph N/A   Overcast
12:55 AM 14.0 °F -4.7 °F 3.2 °F 62% 29.95 in 10.0 mi North 23.0 mph 29.9 mph N/A   Overcast
1:15 AM 14.0 °F -3.0 °F 1.4 °F 57% 29.97 in 10.0 mi NNW 18.4 mph 27.6 mph N/A   Mostly Cloudy
1:35 AM 12.2 °F -6.3 °F 1.4 °F 62% 29.98 in 10.0 mi NNW 20.7 mph 27.6 mph N/A   Mostly Cloudy
1:55 AM 12.2 °F -3.1 °F 1.4 °F 62% 30.00 in 10.0 mi NNW 13.8 mph 24.2 mph N/A   Mostly Cloudy
2:15 AM 10.4 °F -4.8 °F 1.4 °F 67% 30.01 in 10.0 mi NNW 12.7 mph - N/A   Scattered Clouds
2:35 AM 10.4 °F -9.1 °F -2.2 °F 57% 30.01 in 10.0 mi NNW 21.9 mph 32.2 mph N/A   Scattered Clouds
2:55 AM 8.6 °F -10.0 °F -5.8 °F 52% 30.01 in 10.0 mi NNW 18.4 mph - N/A   Clear
3:15 AM 8.6 °F -10.5 °F -9.4 °F 44% 30.02 in 10.0 mi NNW 19.6 mph 26.5 mph N/A   Clear
3:35 AM 6.8 °F -10.0 °F -7.6 °F 52% 30.03 in 10.0 mi NNW 13.8 mph 23.0 mph N/A   Clear
3:55 AM 6.8 °F -11.3 °F -13.0 °F 40% 30.03 in 10.0 mi NNW 16.1 mph 27.6 mph N/A   Clear
4:15 AM 5.0 °F -13.0 °F -13.0 °F 43% 30.04 in 10.0 mi NW 15.0 mph - N/A   Clear
4:35 AM 3.2 °F -18.1 °F -13.0 °F 47% 30.05 in 10.0 mi NW 20.7 mph - N/A   Clear
4:55 AM 3.2 °F -16.5 °F -14.8 °F 43% 30.06 in 10.0 mi NW 17.3 mph - N/A   Clear
5:15 AM 3.2 °F -15.9 °F -14.8 °F 43% 30.08 in 10.0 mi NNW 16.1 mph 26.5 mph N/A   Clear
5:35 AM 1.4 °F -19.4 °F -14.8 °F 47% 30.09 in 10.0 mi NNW 18.4 mph 26.5 mph N/A   Clear
5:55 AM 1.4 °F -18.8 °F -14.8 °F 47% 30.10 in 10.0 mi NNW 17.3 mph 24.2 mph N/A   Clear
6:15 AM -0.4 °F -22.8 °F -16.6 °F 46% 30.10 in 10.0 mi NNW 20.7 mph - N/A   Clear
6:35 AM -0.4 °F -19.9 °F -16.6 °F 46% 30.11 in 10.0 mi NNW 15.0 mph - N/A   Clear
6:55 AM -0.4 °F -18.4 °F -14.8 °F 51% 30.13 in 10.0 mi NNW 12.7 mph - N/A   Clear
7:15 AM -2.2 °F -22.2 °F -14.8 °F 55% 30.14 in 10.0 mi NNW 15.0 mph 20.7 mph N/A   Clear
7:35 AM -0.4 °F -21.2 °F -16.6 °F 46% 30.16 in 10.0 mi NNW 17.3 mph - N/A   Clear
7:55 AM -0.4 °F -20.5 °F -16.6 °F 46% 30.17 in 10.0 mi NNW 16.1 mph 23.0 mph N/A   Clear
8:15 AM -0.4 °F -19.2 °F -16.6 °F 46% 30.18 in 10.0 mi NNW 13.8 mph - N/A   Clear
8:35 AM -0.4 °F -19.2 °F -16.6 °F 46% 30.19 in 10.0 mi North 13.8 mph - N/A   Clear
8:55 AM -0.4 °F -16.7 °F -16.6 °F 46% 30.20 in 10.0 mi NNW 10.4 mph - N/A   Clear
9:15 AM -0.4 °F -19.9 °F -16.6 °F 46% 30.21 in 10.0 mi NNW 15.0 mph - N/A   Clear
9:35 AM -0.4 °F -18.4 °F -16.6 °F 46% 30.21 in 10.0 mi NNW 12.7 mph - N/A   Clear
9:55 AM -0.4 °F -15.7 °F -16.6 °F 46% 30.21 in 10.0 mi NNW 9.2 mph - N/A   Clear
10:15 AM 1.4 °F -12.5 °F -16.6 °F 43% 30.20 in 10.0 mi North 8.1 mph - N/A   Clear
10:35 AM 1.4 °F -13.5 °F -16.6 °F 43% 30.20 in 10.0 mi North 9.2 mph - N/A   Clear
10:55 AM 1.4 °F -11.3 °F -14.8 °F 47% 30.20 in 10.0 mi Variable 6.9 mph 12.7 mph N/A   Clear
11:15 AM 1.4 °F -9.9 °F -16.6 °F 43% 30.20 in 10.0 mi NNW 5.8 mph 12.7 mph N/A   Clear
11:30 AM 1.4 °F -11.3 °F -14.8 °F 47% 30.21 in 10.0 mi NW 6.9 mph - N/A   Clear
11:55 AM 3.2 °F -7.8 °F -14.8 °F 43% 30.20 in 10.0 mi Variable 5.8 mph - N/A   Clear
12:15 PM 3.2 °F -7.8 °F -14.8 °F 43% 30.19 in 10.0 mi Variable 5.8 mph - N/A   Clear
12:35 PM 5.0 °F - -13.0 °F 43% 30.19 in 10.0 mi Calm Calm - N/A   Clear
12:55 PM 5.0 °F -6.9 °F -13.0 °F 43% 30.17 in 10.0 mi NNW 6.9 mph - N/A   Clear
1:15 PM 6.8 °F -4.8 °F -13.0 °F 40% 30.16 in 10.0 mi NW 6.9 mph - N/A   Clear
1:35 PM 6.8 °F -3.5 °F -13.0 °F 40% 30.15 in 10.0 mi Variable 5.8 mph - N/A   Clear
1:55 PM 6.8 °F - -13.0 °F 40% 30.15 in 10.0 mi Calm Calm - N/A   Clear
2:15 PM 6.8 °F - -11.2 °F 44% 30.15 in 10.0 mi Calm Calm - N/A   Clear
2:35 PM 8.6 °F -1.3 °F -11.2 °F 40% 30.14 in 10.0 mi NE 5.8 mph - N/A   Clear
2:55 PM 8.6 °F -1.3 °F -11.2 °F 40% 30.13 in 10.0 mi NNE 5.8 mph - N/A   Clear
3:15 PM 8.6 °F -1.3 °F -11.2 °F 40% 30.13 in 10.0 mi NNE 5.8 mph - N/A   Clear
3:35 PM 8.6 °F -2.6 °F -11.2 °F 40% 30.13 in 10.0 mi ENE 6.9 mph - N/A   Clear
3:55 PM 8.6 °F -1.3 °F -13.0 °F 37% 30.13 in 10.0 mi ENE 5.8 mph - N/A   Clear
4:10 PM 8.6 °F 2.0 °F -13.0 °F 37% 30.12 in 10.0 mi East 3.5 mph - N/A   Clear
4:35 PM 8.6 °F -1.3 °F -11.2 °F 40% 30.12 in 10.0 mi ENE 5.8 mph - N/A   Mostly Cloudy
4:55 PM 8.6 °F -1.3 °F -11.2 °F 40% 30.11 in 10.0 mi NE 5.8 mph - N/A   Overcast
5:15 PM 8.6 °F - -11.2 °F 40% 30.11 in 10.0 mi Calm Calm - N/A   Overcast
5:35 PM 8.6 °F -2.6 °F -11.2 °F 40% 30.11 in 10.0 mi ENE 6.9 mph - N/A   Overcast
5:55 PM 6.8 °F -4.8 °F -9.4 °F 48% 30.11 in 10.0 mi ENE 6.9 mph - N/A   Overcast
6:15 PM 6.8 °F -3.5 °F -9.4 °F 48% 30.10 in 10.0 mi ENE 5.8 mph - N/A   Overcast
6:35 PM 8.6 °F -5.5 °F -7.6 °F 48% 30.10 in 10.0 mi ENE 10.4 mph - N/A   Overcast
6:55 PM 6.8 °F -5.9 °F -9.4 °F 48% 30.10 in 10.0 mi East 8.1 mph - N/A   Overcast
7:15 PM 6.8 °F -4.8 °F -9.4 °F 48% 30.10 in 10.0 mi ENE 6.9 mph - N/A   Mostly Cloudy
7:35 PM 6.8 °F -4.8 °F -9.4 °F 48% 30.11 in 10.0 mi ENE 6.9 mph - N/A   Partly Cloudy
7:55 PM 5.0 °F -9.1 °F -9.4 °F 52% 30.09 in 10.0 mi ENE 9.2 mph - N/A   Clear
8:15 PM 5.0 °F -6.9 °F -9.4 °F 52% 30.10 in 10.0 mi ENE 6.9 mph - N/A   Clear
8:35 PM 5.0 °F -6.9 °F -7.6 °F 56% 30.10 in 10.0 mi East 6.9 mph - N/A   Mostly Cloudy
8:55 PM 5.0 °F -6.9 °F -7.6 °F 56% 30.10 in 10.0 mi East 6.9 mph - N/A   Overcast
9:15 PM 5.0 °F -8.1 °F -9.4 °F 52% 30.10 in 10.0 mi East 8.1 mph - N/A   Overcast
9:35 PM 5.0 °F -9.1 °F -7.6 °F 56% 30.09 in 10.0 mi East 9.2 mph - N/A   Overcast
9:55 PM 5.0 °F -10.8 °F -7.6 °F 56% 30.09 in 10.0 mi East 11.5 mph - N/A   Overcast
10:15 PM 5.0 °F -9.1 °F -7.6 °F 56% 30.09 in 10.0 mi East 9.2 mph - N/A   Overcast
10:35 PM 5.0 °F -6.9 °F -7.6 °F 56% 30.07 in 10.0 mi East 6.9 mph 13.8 mph N/A   Overcast
10:55 PM 5.0 °F -6.9 °F -7.6 °F 56% 30.07 in 10.0 mi Variable 6.9 mph - N/A   Partly Cloudy
11:15 PM 5.0 °F -6.9 °F -7.6 °F 56% 30.07 in 10.0 mi ESE 6.9 mph - N/A   Clear
11:35 PM 5.0 °F -6.9 °F -7.6 °F 56% 30.07 in 10.0 mi ESE 6.9 mph - N/A   Partly Cloudy
11:55 PM 5.0 °F -6.9 °F -7.6 °F 56% 30.06 in 10.0 mi ESE 6.9 mph - N/A   Scattered Clouds